CZ-6A DEB, 60685

Orbit data source: Space-Track

CZ-6A DEB, 60685 is space debris in LEO originally from a launch on Tue, 06 Aug 2024 UTC launched from the Taiyaun Space Center, China (TSC). Debris objects in space refer to the collection of defunct objects orbiting the Earth. Examples of debris include non-operational satellites, rocket bodies, and fragments generated from explosions, collisions, or faulty payload assembly.

Loading next visibility...
Identifier
60685, 2024-140CN
Orbit
LEO
Country
Flag of CNCN / PRC
Related business
Manufacturer
SAST
Mission
Spacecraft
Bus & Motor
Unknown
Mass
Unknown
Launch date (UTC)
2024-08-06 (2 years ago)
Launch vehicle
Unknown
Launch site
Taiyaun Space Center, China (TSC)
Object type
Payload
Rocket body
Debris
Shape & HBR
Unknown shape, 0.1 m
Radar Cross Section
Medium (>0.1 m² and <1 m²)

Expand to show TLE details & history
Last TLE update: 13 hours ago

TLE from 13 hours ago
0 CZ-6A DEB
1 60685U 24140CN  26171.29718161  .00001244  00000-0  31565-3 0  9992
2 60685  89.0013 270.9478 0074507 296.9338  62.4269 14.48600008 98308
Epoch: 2026-06-20T07:07Z
TLE epoch observation values (Epoch: 2026-06-20T07:07:56.491Z)
Latitude
-0.00004°
Longitude
-104.55141°
Altitude
709.11 km
Speed
7.514 km/s
True Right ascension
18h 03m 47s
True Declination
0° 00' 00"
Sunlit
Object was in full shadow at epoch
Visualization orbit readout
Latitude
Unknown
Longitude
Unknown
Altitude
Unknown
Speed
Unknown
Apparent Right ascension
Unknown
Apparent Declination
Unknown
Sunlit
N/A
Visualization observer readout
Local Sidereal Time
07:20:12
Azimuth
Unknown
Elevation
Unknown
Doppler factor
Unknown
Orbital elements
Apogee altitude
780.074 km
Perigee altitude
674.196 km
Semi-major axis
7,105.272 km
Eccentricity
0.00745
Inclination
89.0013°
RAAN
270.9478°
Arg. of periapsis
296.9338°
True anomaly
63.18697°
Mean anomaly
62.4269°
Eccentric anomaly
62.80661°
Mean motion
3.62387 °/min
Orbital period
99.34 mins
BSTAR
0.00031565
Loading maneuver chart data...
Computing Atmospheric mass density...
Loading historical data...
Loading historical data...
Loading historical data...
Loading historical data...
Loading historical data...
Loading historical data...
Loading historical data...

Documentation

Showing up to 5 results
|